カタログに戻る

STARLINK-37872

運用中通信SSO
NORAD 69433·PAYLOAD·🇺🇸 United States

打ち上げ Jun 7, 2026 から Vandenberg Space Force Base

Loading…

次のパス (今後24時間)

TLE

最新Source: CelesTrak SupGP

元期: Sep 14, 2026, 23:23 UTC

1 69433C 26126P   26257.97479167  .00092078  00000+0  28587-2 0  2578
2 69433  97.2849 119.2677 0002330  94.7223   2.5105 15.33386051    13

AllMySatでSTARLINK-37872をリアルタイム追跡

Download on the App Store